Temp
17 17 16 16 16 17 17 17 17 16 17 17 17 17 17 18 19 19 19 19 19 19 19 19 19 19 20 19 19 19 19 19 19 19 19 19 19 18 18 18 18 17
16 17 18 18 17 18 18 18 17 17 16 17 17 18 18 19 19 19 19 19 19 19 19 19 19 19 19 19 19 18 18 18 18 20 19 18 18 18 18 18 18 18
16 16 16 16 16 16 17 17 17 17 17 17 18 18 18 19 18 19 19 19 18 18 18 18 18 18 18 18 18 18 18 17 17 18 18 17 18 18 18 18 18 18
16 16 16 16 16 16 17 16 16 17 17 17 17 17 18 18 19 18 18 19 18 18 18 18 18 18 18 18 17 17 17 17 18 18 17 17 18 18 17 18 18 18
16 16 16 16 16 17 17 16 16 16 16 16 17 17 17 17 17 17 17 17 17 17 16 17 17 17 17 17 18 16 17 17 18 18 16 15 16 16 17 17 15 15
16 16 16 16 16 16 15 15 15 15 15 15 16 17 17 17 16 16 16 16 16 16 16 15 16 16 16 17 17 17 17 17 17 17 16 15 16 17 16 15 14 13
15 15 16 16 15 15 15 14 14 15 15 15 15 14 15 15 15 15 15 15 14 14 14 14 14 15 16 17 17 17 17 17 17 17 15 15 15 15 17 15 14 13
15 15 15 14 13 13 13 13 13 13 13 14 13 14 14 14 14 14 14 14 13 13 14 14 14 15 16 17 16 16 16 17 16 15 14 14 14 14 15 15 14 12
15 14 13 13 12 12 12 12 12 13 13 12 12 13 14 14 13 13 13 13 12 12 13 13 14 14 15 15 15 15 15 15 16 16 15 14 13 13 13 14 13 12
14 13 12 12 11 11 11 12 12 12 13 12 12 12 12 13 13 12 12 12 11 11 11 11 12 13 14 14 14 14 14 14 15 14 14 13 13 13 13 13 12 11
13 12 11 11 11 12 11 11 11 12 12 12 11 11 11 11 11 12 11 10 10 10 10 11 12 13 13 14 15 15 15 15 15 15 15 14 13 13 15 13 12 12
12 11 11 11 11 11 11 11 11 11 11 11 11 11 10 10 10 10 10 9 10 10 11 11 11 12 13 14 14 14 14 14 14 14 14 14 13 13 13 14 13 13
11 11 11 11 11 11 11 11 11 11 11 10 11 10 9 8 9 9 9 9 10 10 10 11 11 12 13 13 13 13 13 12 13 13 14 14 14 14 14 14 14 14
12 12 11 11 11 11 11 11 11 10 10 10 9 8 7 7 7 7 8 9 9 9 10 10 10 10 11 12 12 12 12 12 13 13 13 14 15 15 15 15 15 15
12 12 12 11 11 11 11 10 10 10 10 8 7 6 7 7 7 7 7 7 8 8 9 9 9 9 10 10 10 10 11 11 12 13 13 14 14 15 16 16 15 14
11 11 11 11 10 10 10 10 10 9 7 7 6 6 5 6 5 6 5 5 6 6 7 8 8 9 11 15 16 13 12 12 13 14 14 14 14 15 15 16 16 15
11 10 10 9 9 10 9 9 9 7 6 5 5 5 4 4 4 4 4 4 5 5 5 6 7 8 13 16 18 19 18 16 16 15 15 15 15 15 15 16 17 17
10 10 9 8 9 9 9 8 7 6 5 5 4 3 4 3 3 3 3 4 4 4 4 5 5 11 15 17 18 20 21 19 19 19 19 18 18 18 17 17 18 18
10 9 8 7 7 7 7 6 5 4 3 2 1 2 2 1 2 3 3 4 3 3 3 5 5 11 15 17 19 20 22 22 21 21 21 21 21 21 21 21 20 19
8 8 6 5 6 6 5 5 3 1 1 0 1 2 1 1 2 2 2 2 2 2 3 4 5 10 15 17 19 21 22 23 22 22 22 22 23 23 23 22 22 20
8 6 5 4 4 4 3 2 1 -0 1 1 -0 1 1 -0 0 0 1 2 3 3 3 4 5 13 16 18 20 22 23 24 23 23 23 23 24 24 25 24 24 22
6 5 4 3 3 2 1 1 1 -1 -1 0 -0 -0 1 1 2 3 3 3 4 4 3 3 5 14 16 19 20 22 24 23 23 23 23 24 25 26 26 26 25 24
6 4 3 2 1 0 -0 -0 -0 -1 -1 -0 -2 -0 0 1 2 2 3 3 3 3 3 3 5 10 16 18 20 23 24 22 23 23 23 24 24 25 26 26 26 25
6 4 2 1 0 -1 -1 0 0 0 -0 -0 -1 -1 -0 1 1 1 2 3 3 3 5 4 6 11 16 19 21 23 24 23 23 21 21 22 22 23 25 26 26 27
5 4 3 1 -1 -1 -1 -1 -0 -1 -1 -1 -1 -2 -1 -1 0 1 2 3 4 5 8 8 8 11 16 19 21 23 23 23 22 21 20 21 22 22 22 23 24 26
3 2 1 0 -0 -2 -3 -2 -2 -4 -3 -2 -1 -0 -0 0 1 1 1 2 4 5 6 8 8 9 12 18 21 23 25 23 22 21 20 20 21 22 20 18 17 19
MSLP
1027.57 1027.49 1027.42 1027.30 1027.26 1027.14 1027.06 1026.97 1026.94 1026.94 1026.90 1026.78 1026.69 1026.49 1026.42 1026.26 1026.09 1026.02 1025.94 1025.90 1025.81 1025.78 1025.78 1025.78 1025.78 1025.73 1025.69 1025.66 1025.66 1025.57 1025.49 1025.42 1025.30 1025.21 1025.21 1025.18 1025.14 1025.14 1025.09 1025.09 1025.09 1025.09
1027.18 1027.14 1026.94 1026.81 1026.78 1026.73 1026.69 1026.69 1026.69 1026.69 1026.61 1026.54 1026.42 1026.26 1026.14 1025.97 1025.81 1025.73 1025.66 1025.61 1025.54 1025.49 1025.49 1025.49 1025.54 1025.49 1025.45 1025.42 1025.38 1025.38 1025.26 1025.14 1025.09 1024.97 1024.94 1024.90 1024.81 1024.81 1024.78 1024.78 1024.78 1024.78
1026.69 1026.73 1026.69 1026.61 1026.57 1026.54 1026.54 1026.45 1026.42 1026.33 1026.30 1026.18 1026.14 1026.06 1025.90 1025.73 1025.57 1025.49 1025.42 1025.33 1025.30 1025.30 1025.30 1025.33 1025.30 1025.26 1025.21 1025.18 1025.09 1025.06 1024.94 1024.85 1024.81 1024.73 1024.73 1024.66 1024.61 1024.57 1024.49 1024.45 1024.45 1024.45
1026.21 1026.26 1026.30 1026.26 1026.18 1026.18 1026.18 1026.21 1026.14 1026.06 1025.97 1025.97 1025.94 1025.81 1025.69 1025.54 1025.42 1025.26 1025.18 1025.14 1025.18 1025.14 1025.14 1025.09 1025.06 1025.02 1024.97 1024.90 1024.85 1024.73 1024.61 1024.54 1024.45 1024.45 1024.42 1024.33 1024.30 1024.26 1024.21 1024.21 1024.14 1024.14
1025.78 1025.81 1025.85 1025.85 1025.81 1025.78 1025.85 1025.85 1025.81 1025.81 1025.78 1025.69 1025.66 1025.57 1025.49 1025.33 1025.21 1025.14 1025.09 1025.06 1025.02 1024.94 1024.94 1024.90 1024.85 1024.78 1024.69 1024.61 1024.49 1024.38 1024.26 1024.18 1024.09 1024.09 1024.06 1024.02 1023.97 1023.97 1023.93 1023.90 1023.90 1023.90
1025.38 1025.38 1025.42 1025.49 1025.49 1025.49 1025.54 1025.54 1025.57 1025.61 1025.57 1025.49 1025.38 1025.30 1025.18 1025.09 1025.09 1025.06 1024.97 1024.94 1024.85 1024.81 1024.78 1024.69 1024.66 1024.54 1024.42 1024.30 1024.14 1023.97 1023.85 1023.78 1023.70 1023.73 1023.70 1023.66 1023.61 1023.58 1023.58 1023.58 1023.58 1023.61
1024.97 1025.02 1025.06 1025.09 1025.18 1025.21 1025.21 1025.26 1025.30 1025.30 1025.30 1025.26 1025.18 1025.09 1025.02 1024.94 1024.90 1024.85 1024.81 1024.78 1024.73 1024.69 1024.66 1024.54 1024.45 1024.30 1024.09 1023.97 1023.85 1023.70 1023.58 1023.46 1023.34 1023.38 1023.38 1023.34 1023.29 1023.26 1023.22 1023.22 1023.22 1023.22
1024.61 1024.66 1024.69 1024.81 1024.94 1024.97 1024.97 1024.97 1025.06 1025.09 1025.09 1025.06 1024.94 1024.78 1024.73 1024.69 1024.69 1024.69 1024.66 1024.66 1024.61 1024.54 1024.42 1024.30 1024.14 1023.93 1023.78 1023.66 1023.53 1023.41 1023.34 1023.22 1023.09 1023.09 1023.09 1023.05 1023.05 1022.97 1022.93 1022.93 1022.93 1022.93
1024.30 1024.33 1024.42 1024.49 1024.61 1024.66 1024.73 1024.73 1024.73 1024.78 1024.78 1024.73 1024.61 1024.49 1024.45 1024.42 1024.42 1024.45 1024.45 1024.45 1024.42 1024.30 1024.21 1024.06 1023.90 1023.73 1023.53 1023.41 1023.26 1023.14 1023.02 1022.90 1022.78 1022.73 1022.73 1022.70 1022.70 1022.66 1022.61 1022.61 1022.66 1022.61
1024.02 1024.06 1024.14 1024.18 1024.26 1024.33 1024.38 1024.38 1024.42 1024.42 1024.38 1024.33 1024.26 1024.21 1024.18 1024.14 1024.18 1024.18 1024.21 1024.26 1024.18 1024.09 1024.02 1023.85 1023.70 1023.46 1023.29 1023.09 1022.93 1022.82 1022.73 1022.58 1022.46 1022.41 1022.41 1022.38 1022.29 1022.26 1022.26 1022.26 1022.26 1022.26
1023.73 1023.78 1023.85 1023.85 1023.90 1023.97 1023.97 1024.02 1024.06 1024.06 1024.02 1023.97 1023.97 1023.93 1023.93 1023.93 1023.93 1023.93 1023.97 1023.97 1023.93 1023.85 1023.70 1023.53 1023.34 1023.09 1022.85 1022.66 1022.49 1022.38 1022.26 1022.14 1022.02 1021.97 1021.90 1021.85 1021.82 1021.82 1021.73 1021.73 1021.73 1021.73
1023.46 1023.53 1023.53 1023.49 1023.53 1023.58 1023.61 1023.66 1023.70 1023.66 1023.61 1023.58 1023.61 1023.61 1023.66 1023.70 1023.73 1023.73 1023.73 1023.70 1023.61 1023.53 1023.38 1023.22 1023.05 1022.82 1022.53 1022.26 1022.09 1022.05 1021.93 1021.82 1021.70 1021.61 1021.49 1021.41 1021.41 1021.38 1021.34 1021.26 1021.17 1021.14
1023.14 1023.14 1023.17 1023.17 1023.14 1023.17 1023.26 1023.34 1023.34 1023.29 1023.29 1023.29 1023.29 1023.34 1023.41 1023.49 1023.53 1023.53 1023.46 1023.41 1023.29 1023.26 1023.09 1022.93 1022.70 1022.46 1022.17 1021.93 1021.78 1021.73 1021.66 1021.58 1021.46 1021.29 1021.14 1021.02 1020.90 1020.82 1020.73 1020.70 1020.61 1020.53
1022.73 1022.78 1022.82 1022.82 1022.82 1022.85 1022.90 1022.93 1022.97 1022.93 1022.93 1022.93 1023.02 1023.09 1023.17 1023.26 1023.29 1023.29 1023.17 1023.14 1023.02 1022.93 1022.82 1022.70 1022.46 1022.22 1021.97 1021.73 1021.53 1021.41 1021.29 1021.17 1021.02 1020.85 1020.70 1020.53 1020.29 1020.17 1020.09 1020.05 1019.97 1019.90
1022.41 1022.46 1022.49 1022.49 1022.53 1022.53 1022.53 1022.53 1022.58 1022.61 1022.66 1022.73 1022.82 1022.85 1022.90 1022.93 1022.97 1022.97 1022.97 1022.85 1022.73 1022.61 1022.46 1022.34 1022.17 1021.90 1021.66 1021.46 1021.29 1021.14 1021.02 1020.85 1020.66 1020.46 1020.29 1020.05 1019.78 1019.53 1019.38 1019.29 1019.29 1019.26
1022.14 1022.17 1022.22 1022.26 1022.26 1022.22 1022.17 1022.22 1022.29 1022.38 1022.46 1022.53 1022.58 1022.61 1022.70 1022.73 1022.73 1022.73 1022.70 1022.58 1022.46 1022.29 1022.17 1022.02 1021.82 1021.53 1021.17 1020.85 1020.53 1020.41 1020.38 1020.22 1019.97 1019.78 1019.61 1019.41 1019.17 1018.90 1018.58 1018.46 1018.41 1018.46
1021.93 1021.93 1021.97 1021.97 1021.93 1021.93 1021.93 1021.93 1022.02 1022.14 1022.22 1022.29 1022.38 1022.41 1022.46 1022.49 1022.49 1022.46 1022.38 1022.22 1022.09 1021.90 1021.78 1021.61 1021.38 1021.14 1020.73 1020.29 1019.85 1019.49 1019.29 1019.14 1019.02 1018.78 1018.66 1018.53 1018.34 1018.17 1017.85 1017.49 1017.46 1017.46
1021.53 1021.61 1021.66 1021.66 1021.66 1021.66 1021.70 1021.70 1021.82 1021.93 1022.05 1022.09 1022.17 1022.22 1022.22 1022.22 1022.17 1022.05 1021.93 1021.82 1021.70 1021.49 1021.34 1021.14 1020.90 1020.49 1020.05 1019.58 1019.09 1018.70 1018.46 1018.26 1018.02 1017.78 1017.53 1017.34 1017.14 1017.02 1016.85 1016.66 1016.46 1016.49
1021.22 1021.29 1021.34 1021.38 1021.41 1021.46 1021.46 1021.53 1021.66 1021.82 1021.85 1021.97 1022.05 1022.02 1022.02 1021.93 1021.78 1021.61 1021.46 1021.34 1021.26 1021.09 1020.85 1020.61 1020.38 1019.90 1019.46 1018.93 1018.49 1018.05 1017.70 1017.46 1017.17 1016.90 1016.61 1016.26 1015.97 1015.78 1015.58 1015.46 1015.41 1015.61
1020.85 1020.93 1021.02 1021.09 1021.17 1021.22 1021.34 1021.41 1021.53 1021.66 1021.78 1021.85 1021.90 1021.82 1021.73 1021.53 1021.38 1021.26 1021.09 1020.97 1020.85 1020.66 1020.41 1020.14 1019.85 1019.41 1018.93 1018.41 1017.93 1017.46 1017.02 1016.66 1016.38 1016.09 1015.82 1015.41 1015.05 1014.73 1014.49 1014.34 1014.38 1014.66
1020.41 1020.53 1020.70 1020.82 1020.90 1021.02 1021.17 1021.29 1021.41 1021.53 1021.66 1021.66 1021.66 1021.53 1021.38 1021.22 1021.05 1020.93 1020.70 1020.49 1020.34 1020.09 1019.90 1019.58 1019.22 1018.73 1018.22 1017.70 1017.17 1016.70 1016.26 1015.90 1015.61 1015.34 1015.05 1014.61 1014.14 1013.78 1013.46 1013.29 1013.34 1013.70
1019.97 1020.17 1020.29 1020.46 1020.66 1020.78 1020.97 1021.05 1021.17 1021.29 1021.41 1021.38 1021.34 1021.22 1021.05 1020.82 1020.58 1020.34 1020.09 1019.90 1019.73 1019.61 1019.49 1019.14 1018.70 1018.17 1017.66 1017.05 1016.53 1016.09 1015.66 1015.34 1015.05 1014.73 1014.29 1013.82 1013.38 1012.97 1012.66 1012.53 1012.61 1012.90
1019.38 1019.70 1019.93 1020.09 1020.29 1020.49 1020.61 1020.82 1020.90 1021.02 1021.09 1021.14 1021.14 1020.93 1020.70 1020.38 1020.09 1019.82 1019.61 1019.49 1019.38 1019.26 1019.14 1018.78 1018.29 1017.70 1017.22 1016.58 1016.02 1015.49 1015.14 1014.85 1014.49 1014.05 1013.70 1013.38 1013.02 1012.70 1012.41 1012.26 1012.22 1012.34
1018.78 1019.14 1019.46 1019.70 1019.93 1020.09 1020.26 1020.38 1020.49 1020.58 1020.70 1020.73 1020.78 1020.58 1020.29 1020.02 1019.78 1019.61 1019.41 1019.26 1019.02 1018.78 1018.58 1018.34 1017.73 1017.14 1016.58 1015.97 1015.46 1014.97 1014.61 1014.26 1013.90 1013.70 1013.53 1013.22 1012.82 1012.53 1012.38 1012.26 1012.14 1012.02
1018.17 1018.58 1018.93 1019.26 1019.49 1019.66 1019.85 1020.02 1020.09 1020.22 1020.34 1020.46 1020.46 1020.34 1020.05 1019.85 1019.58 1019.29 1018.97 1018.66 1018.46 1018.17 1017.90 1017.61 1017.14 1016.58 1016.09 1015.61 1015.05 1014.53 1014.14 1013.82 1013.61 1013.46 1013.29 1013.05 1012.82 1012.53 1012.41 1012.34 1012.22 1012.02
1017.66 1018.05 1018.41 1018.78 1019.05 1019.29 1019.53 1019.66 1019.78 1019.97 1020.09 1020.14 1020.02 1019.85 1019.58 1019.34 1019.09 1018.90 1018.61 1018.26 1017.97 1017.73 1017.41 1017.17 1016.90 1016.38 1015.90 1015.26 1014.66 1014.14 1013.66 1013.49 1013.38 1013.29 1013.17 1013.05 1012.82 1012.49 1012.38 1012.34 1012.41 1012.38
Wind_Speed
6 6 6 5 6 6 6 6 4 5 6 6 6 6 6 5 5 5 5 5 5 5 5 5 5 5 6 6 5 6 6 7 7 6 7 7 7 7 7 7 7 5
7 8 7 6 6 6 5 4 5 6 7 7 6 6 6 7 5 4 5 6 6 5 5 5 5 6 6 6 6 7 7 7 8 6 7 7 7 7 8 8 8 7
7 7 7 8 7 7 7 6 6 6 6 6 6 6 7 6 6 5 5 5 5 5 5 6 6 7 7 7 7 7 8 8 8 6 7 8 7 8 8 8 7 8
8 8 7 7 7 7 6 6 6 6 5 6 6 6 6 6 6 6 4 6 5 6 6 6 7 7 7 8 7 7 8 8 8 7 8 7 7 8 8 7 8 8
9 8 7 7 6 6 6 6 7 6 7 7 7 6 7 7 6 5 5 5 6 6 5 7 7 7 8 8 8 7 7 8 7 7 8 8 8 7 7 7 7 8
8 8 8 7 6 6 6 6 7 7 7 8 8 7 6 6 5 5 6 6 6 6 7 6 8 8 7 7 8 8 7 7 7 8 9 8 8 7 6 6 7 8
9 7 9 6 6 6 7 7 6 8 6 6 6 6 6 6 5 6 6 6 6 6 8 7 8 8 8 8 8 9 9 9 8 7 8 8 7 9 9 7 8 8
9 7 6 5 6 6 7 7 6 6 7 6 7 7 5 5 6 6 5 6 6 7 8 8 9 10 9 9 9 9 10 9 9 9 9 9 8 9 8 6 6 7
8 7 6 7 7 6 7 7 7 7 6 8 7 6 5 5 5 5 5 6 7 8 8 8 9 9 9 9 9 9 10 11 10 9 8 9 9 9 9 7 8 8
8 7 7 8 8 7 7 7 7 7 6 7 6 5 6 5 5 6 6 7 8 8 8 9 10 9 10 9 10 10 10 11 10 9 9 10 10 9 8 8 9 9
8 7 8 7 7 7 8 7 7 7 6 7 6 6 6 5 5 5 6 7 8 8 9 10 10 10 11 11 10 10 11 10 9 8 8 9 9 9 10 10 9 10
8 7 8 9 9 8 8 8 7 7 7 6 5 7 5 5 5 5 6 8 8 10 11 11 10 11 11 11 11 11 11 11 9 10 10 9 9 9 9 9 10 10
9 9 8 9 9 8 7 7 8 7 7 6 5 5 5 5 6 7 7 7 9 10 11 11 11 11 11 11 11 11 10 10 10 10 11 9 10 10 10 10 11 11
9 8 8 8 7 6 7 8 8 7 6 6 4 4 4 5 6 7 7 8 9 10 10 10 11 11 11 11 10 10 9 10 11 10 10 10 11 11 11 12 12 12
8 8 7 7 8 8 8 8 7 6 6 4 4 4 4 5 5 6 7 9 11 10 10 10 10 10 10 9 9 10 10 11 12 12 12 12 12 11 11 12 12 12
8 8 7 8 8 9 7 7 7 6 4 4 4 4 4 5 6 6 7 8 9 11 10 10 10 9 13 19 18 11 9 10 11 12 12 12 12 12 12 13 13 12
8 8 8 8 9 8 7 6 6 4 4 4 4 4 5 5 6 8 8 8 9 10 11 10 10 10 20 21 22 24 16 12 10 10 11 12 11 12 11 11 12 12
9 9 9 8 7 8 7 5 4 4 4 4 4 5 5 5 7 8 8 8 8 9 10 10 10 16 21 22 22 22 20 13 11 11 10 10 11 12 11 11 13 12
9 9 8 7 6 5 5 3 4 5 5 4 5 5 6 7 8 8 9 8 8 9 10 10 10 17 21 22 22 22 22 18 11 12 12 12 12 14 15 14 12 11
8 8 7 6 5 5 5 5 5 5 4 4 5 6 7 7 8 9 9 9 9 9 10 10 10 16 21 22 22 22 22 18 11 12 13 14 14 14 14 14 13 12
8 7 7 6 5 5 5 5 6 5 5 5 5 7 7 7 7 8 8 9 9 9 8 9 10 20 21 22 22 21 21 18 10 11 11 13 14 14 15 14 13 11
8 7 7 6 6 6 6 6 6 5 6 5 6 6 6 7 8 9 9 8 8 8 8 10 11 20 21 21 21 20 20 11 9 11 11 11 10 9 8 9 10 10
7 7 7 7 6 7 7 7 6 6 6 4 6 7 8 8 8 7 6 7 8 8 9 10 11 16 20 20 20 20 15 9 10 9 7 7 7 5 5 6 8 9
8 8 7 7 7 7 7 6 6 5 5 4 6 8 8 8 6 7 7 8 9 10 9 10 11 15 20 20 20 19 15 9 6 4 5 6 5 4 4 4 5 12
8 8 8 7 7 7 6 6 6 5 4 4 6 7 8 7 7 7 8 8 9 10 14 13 11 14 19 19 20 18 13 6 5 3 5 5 6 5 2 4 5 6
9 9 9 8 7 6 6 6 4 3 5 7 8 7 6 6 6 7 9 9 8 8 9 9 11 11 13 20 19 17 14 7 4 4 4 5 6 6 3 1 3 5
Wind_Direction
234 241 248 248 249 253 250 251 263 279 281 279 277 284 283 283 282 278 279 283 283 283 282 285 282 280 280 281 273 269 268 264 261 259 257 258 256 249 251 248 246 242
235 245 250 250 255 259 260 264 270 270 276 273 273 279 282 284 275 280 284 284 283 280 283 284 288 283 283 281 280 275 271 266 263 264 261 257 256 254 252 247 246 243
234 239 239 245 249 252 253 255 261 263 264 269 276 278 279 280 286 282 278 275 279 286 290 289 287 285 279 276 275 272 269 266 263 257 255 253 254 254 254 250 246 240
230 229 236 243 244 250 255 260 258 258 261 272 274 276 277 276 277 276 274 288 290 286 282 283 283 283 277 273 268 265 261 258 257 256 254 250 246 247 248 251 248 243
229 233 234 240 242 245 249 253 259 260 265 267 270 271 273 273 272 277 283 283 280 281 280 279 278 276 277 271 264 262 260 258 253 249 248 248 244 242 244 245 247 245
227 227 234 237 239 242 244 249 258 262 266 267 265 269 267 271 274 275 280 279 279 282 287 284 280 275 267 266 266 263 261 258 251 249 251 250 249 240 238 237 241 244
231 227 234 236 241 241 248 252 252 262 262 264 269 260 262 261 265 272 275 277 279 281 282 279 277 273 269 268 267 267 267 266 264 250 251 252 250 249 243 240 239 239
234 228 223 223 231 235 242 244 249 252 253 257 257 259 251 261 266 266 267 272 277 278 279 277 276 275 272 267 265 262 261 261 259 251 250 254 250 253 245 241 240 239
230 224 222 229 232 233 240 246 250 250 250 254 253 250 247 255 260 260 267 272 274 273 274 273 272 271 269 266 264 266 267 264 263 264 258 256 251 248 248 243 243 241
226 227 227 229 232 234 242 244 245 246 245 247 247 250 255 253 256 267 271 272 271 272 269 269 269 264 262 259 258 256 258 261 259 249 250 251 253 253 248 243 240 241
229 225 230 228 230 236 241 240 241 244 244 246 247 251 251 253 258 261 269 269 269 269 272 268 267 265 261 258 257 258 260 263 262 262 257 252 249 251 250 246 241 238
227 225 230 233 236 235 238 242 242 242 242 241 236 249 249 249 259 264 265 269 269 272 269 267 264 263 261 260 259 257 258 258 257 257 255 252 250 247 247 245 246 242
228 231 232 234 234 234 237 241 240 239 236 237 235 239 243 257 260 264 262 265 271 270 266 267 267 265 264 263 261 259 258 260 261 260 258 257 253 249 246 243 241 242
230 231 234 234 234 235 235 241 239 236 235 236 226 234 248 257 261 261 263 269 269 266 265 264 265 264 263 262 259 257 256 253 255 256 255 253 250 247 243 242 240 239
232 231 231 231 237 242 237 234 236 240 233 225 231 245 253 256 259 262 264 265 266 265 265 263 261 260 259 257 257 254 250 254 254 254 253 254 253 247 242 240 239 236
232 232 231 235 238 241 237 238 243 233 227 233 241 246 252 259 262 262 261 261 263 264 263 261 258 258 257 257 254 248 237 236 239 242 242 242 244 245 241 242 239 235
231 234 233 233 238 240 238 231 229 226 233 242 250 252 256 260 263 262 259 258 256 258 260 258 258 257 260 261 261 258 255 249 238 230 227 232 233 235 241 238 244 236
231 235 236 234 228 236 240 235 233 233 242 247 252 257 261 260 260 260 259 258 257 257 256 255 257 261 262 262 262 261 258 253 249 247 238 229 228 235 237 243 246 240
229 233 230 230 229 236 242 221 230 243 246 250 257 262 264 257 258 260 260 257 257 258 259 257 257 264 266 267 266 266 265 262 258 253 255 255 247 245 245 245 241 238
222 226 228 231 234 234 230 237 238 242 242 246 259 259 258 260 262 262 262 260 256 256 257 257 257 264 268 268 269 268 267 266 255 255 255 253 251 249 245 241 234 229
219 221 228 229 228 227 233 234 236 245 246 249 248 254 259 260 260 260 259 257 255 252 255 260 260 268 270 271 271 271 270 271 267 263 263 262 258 254 248 241 232 223
213 224 226 225 223 227 227 232 234 239 250 254 255 254 257 260 257 254 256 254 254 257 260 266 267 271 273 274 274 274 275 275 266 264 261 261 264 280 259 238 227 218
206 214 222 221 219 223 228 231 235 248 249 242 252 260 264 259 257 257 258 263 265 262 263 268 271 274 274 274 275 277 280 272 266 265 279 285 281 296 301 259 231 218
203 212 216 219 218 222 228 230 238 245 247 238 255 262 260 255 260 266 263 258 261 261 258 264 268 272 275 277 279 281 282 277 275 267 281 292 296 309 318 306 265 243
199 205 211 214 216 220 220 231 235 240 245 248 254 254 257 256 254 258 264 264 260 261 263 264 268 275 279 280 281 283 286 285 284 276 293 304 305 285 306 322 315 313
178 193 191 208 214 218 219 225 227 229 245 258 256 252 255 256 260 262 267 267 267 262 262 260 265 270 271 276 279 281 293 302 290 293 299 299 298 295 280 273 309 313